Wind_Speed
4 4 3 3 4 4 5 5 6 7 8 9 10 11 13 13 14 15 15 16 17 17 18 18 18 18 18 18 18 17 17 18 18 19 20 20 20 22 22 21 21 20 20 21 20 19 20 19 19 19 19 19 20 23 26 30 31 31 33 32 28 25 23
3 3 3 4 4 5 5 6 7 8 9 10 12 13 14 15 16 16 17 18 18 19 19 18 19 19 20 20 20 19 19 18 18 19 20 22 22 22 23 24 24 23 22 22 22 21 22 22 22 22 21 20 21 21 22 26 29 31 32 30 29 27 25
3 3 4 5 6 6 8 9 10 12 13 13 14 14 15 15 16 16 17 18 19 19 18 18 19 19 20 21 21 21 21 21 21 20 21 23 23 23 24 25 26 24 21 22 23 22 22 22 23 25 24 23 23 23 22 23 26 28 29 29 29 29 26
4 5 6 6 7 8 9 11 14 15 15 15 15 14 14 14 15 16 17 18 18 19 19 19 20 20 21 21 22 23 23 24 23 22 22 23 24 25 24 25 27 25 24 26 25 23 24 24 24 25 25 24 24 25 24 24 25 25 26 29 30 31 29
5 6 7 8 8 10 12 15 17 17 16 16 15 14 13 13 14 16 17 18 19 20 20 21 21 20 20 21 22 23 23 23 22 21 22 23 24 26 26 26 27 27 28 28 25 23 23 23 24 26 26 24 24 24 24 25 25 23 25 28 30 32 32
7 8 9 10 12 13 16 17 17 17 16 15 15 14 14 14 15 17 18 19 20 20 20 19 19 18 19 20 21 22 21 20 19 19 21 21 22 24 26 27 27 29 29 27 25 25 24 23 25 27 27 25 25 24 24 25 25 24 25 26 27 31 33
8 9 11 13 14 16 17 17 16 16 16 15 15 15 15 15 16 17 18 18 19 19 18 18 18 18 19 20 21 21 20 19 18 18 19 20 20 21 22 23 24 27 28 26 25 25 24 25 26 27 27 26 26 24 24 25 24 24 25 25 25 29 33
9 11 13 15 17 18 18 17 16 15 15 15 15 15 15 15 16 16 17 17 17 18 18 18 18 19 19 19 20 20 19 19 18 17 18 19 20 20 18 19 21 22 22 23 23 22 22 23 24 25 26 27 27 24 23 26 26 24 25 25 25 28 32
12 14 16 18 19 20 19 17 15 15 15 15 15 15 15 15 15 16 16 17 18 18 19 18 18 18 18 19 20 19 19 18 18 18 17 18 19 18 17 17 18 20 20 20 20 20 20 20 20 20 22 25 27 25 24 26 28 28 24 22 23 26 31
15 17 18 20 21 21 19 16 14 14 15 15 15 14 14 15 16 17 17 18 18 18 18 17 17 17 17 18 19 19 18 17 17 18 17 17 17 16 16 16 16 18 18 19 19 19 19 19 19 18 19 22 25 26 26 26 28 29 24 22 23 25 30
17 19 21 22 22 20 17 14 13 14 14 14 14 14 14 15 16 17 17 17 17 16 16 16 16 16 16 17 17 17 17 16 15 18 17 15 14 14 15 15 15 16 16 16 17 17 17 18 17 16 17 21 23 25 28 27 26 27 26 24 22 23 28
21 22 23 23 21 17 14 12 12 12 13 13 13 14 15 16 16 17 16 16 15 14 15 14 14 15 15 15 15 15 16 15 14 17 17 13 12 13 13 14 15 15 15 15 14 14 15 16 16 16 15 18 19 21 26 28 26 24 26 25 21 21 25
23 23 23 20 17 13 12 11 11 12 12 13 14 14 15 15 15 16 15 15 14 14 14 13 13 14 14 14 14 13 14 14 13 14 15 12 11 12 12 13 14 14 13 13 13 12 13 14 16 16 15 16 17 17 21 27 27 24 24 24 21 19 22
21 21 19 16 12 11 10 10 10 11 12 13 14 15 15 14 14 14 14 14 14 14 13 13 13 13 13 13 13 12 12 13 12 12 12 12 11 11 12 13 14 13 12 12 13 12 13 13 14 16 15 15 18 18 18 22 25 25 25 23 19 16 17
18 17 14 10 8 8 8 9 10 11 12 14 15 15 14 13 13 13 12 12 13 13 13 12 12 12 13 13 13 11 11 11 11 11 10 10 11 11 12 13 14 13 12 12 12 12 12 13 13 15 16 16 18 19 16 18 23 28 30 26 19 15 15
14 10 6 5 5 6 7 9 10 12 12 13 13 13 12 12 11 11 11 11 11 11 11 12 11 11 11 12 12 11 10 10 10 11 10 10 11 10 10 11 11 11 11 11 11 11 11 11 12 13 15 16 17 17 15 16 22 28 29 25 20 17 15
8 5 3 4 5 6 8 9 10 10 11 11 11 11 11 10 10 9 9 10 10 10 11 11 10 9 9 10 11 11 10 10 9 10 10 10 11 10 9 10 9 9 9 10 10 9 9 10 11 12 13 14 14 15 14 15 19 22 23 21 19 18 16
3 1 2 3 5 6 7 7 8 9 9 10 10 10 10 8 8 8 9 11 11 11 11 10 9 8 9 9 10 11 11 10 10 10 10 10 10 10 9 8 8 8 8 8 7 8 8 9 10 10 11 11 11 12 13 14 17 20 21 20 18 17 17
2 3 2 3 4 5 6 7 8 9 9 10 10 10 9 8 8 10 12 12 11 11 11 10 9 9 9 9 10 10 10 10 10 10 11 11 10 10 9 8 7 7 7 7 7 7 7 7 8 9 10 11 11 11 12 12 14 19 21 21 19 18 18
4 3 3 3 4 5 7 8 9 9 10 10 11 11 11 11 13 13 13 12 11 10 9 9 10 10 10 10 10 10 10 10 10 10 10 10 11 11 10 9 9 8 7 7 6 6 7 7 7 8 8 9 10 11 11 11 12 16 19 21 22 21 18
5 4 4 5 6 7 8 9 10 10 11 12 12 13 14 15 15 13 13 14 13 11 10 10 12 13 12 12 11 11 10 9 9 9 9 9 9 10 10 10 9 9 8 8 7 7 7 7 7 7 8 8 10 10 10 11 12 14 16 18 21 21 19
6 6 6 6 7 8 8 10 11 11 13 15 15 16 16 16 14 13 14 14 14 14 14 15 17 17 16 15 14 12 12 10 9 9 9 8 8 9 9 9 10 10 10 9 9 9 8 7 7 7 7 8 8 8 9 11 12 12 14 16 18 19 18
7 7 7 7 7 8 9 11 12 13 15 16 17 17 15 14 14 14 15 16 16 17 18 18 19 19 18 18 16 15 13 12 11 10 9 8 8 9 9 9 10 10 10 9 9 9 9 8 7 7 7 7 6 6 8 11 13 12 13 16 18 19 18
9 8 7 7 8 9 10 12 14 15 16 16 15 14 13 13 14 16 16 16 17 18 19 19 19 18 17 17 16 15 14 12 12 12 11 11 10 10 10 10 10 10 10 10 10 9 9 8 8 8 8 7 6 7 8 11 14 16 15 16 18 19 18
9 8 8 8 9 10 11 12 14 14 15 14 13 13 14 15 16 17 17 17 19 21 22 21 20 19 17 16 15 15 15 14 15 15 16 16 15 13 13 13 13 13 13 13 13 13 12 10 9 9 8 7 7 7 8 10 13 15 16 16 16 15 16
10 9 9 9 10 10 10 11 13 14 15 15 15 16 17 17 17 17 18 19 22 23 24 24 23 21 19 18 16 16 16 17 19 20 21 21 20 19 18 18 18 18 19 18 18 19 18 15 12 10 9 8 7 7 7 9 11 12 13 14 15 15 15
10 9 10 10 10 10 10 10 12 14 16 16 16 16 16 16 17 18 20 22 23 25 26 25 24 22 20 19 18 18 19 21 23 25 27 27 27 26 25 25 26 26 25 24 24 23 21 18 15 13 11 9 8 7 6 8 8 8 7 8 11 14 16
11 10 10 11 11 11 11 11 12 13 15 15 15 15 16 17 18 20 21 22 23 25 26 24 23 22 20 19 18 19 21 24 26 28 29 30 30 31 31 32 32 31 31 30 28 26 22 19 17 16 18 18 17 15 15 16 15 13 10 7 6 8 11
11 11 11 11 12 12 12 12 12 12 13 14 15 15 16 18 19 20 20 21 22 24 24 22 21 20 19 18 18 19 21 24 26 29 30 31 32 32 32 33 32 31 31 31 30 29 27 25 23 24 25 27 26 25 25 24 23 20 17 14 11 8 6
12 11 11 12 12 12 12 11 11 11 11 12 13 14 15 16 17 18 19 19 20 22 22 21 20 19 18 18 18 19 21 24 27 29 31 31 31 31 31 31 30 30 30 30 29 29 30 30 30 30 31 32 31 31 30 27 25 24 22 20 18 15 13
12 11 11 11 12 13 12 12 11 11 10 11 13 14 14 15 16 17 18 18 19 21 21 21 20 20 19 18 18 19 20 22 26 28 29 29 29 29 29 28 28 28 28 27 26 26 27 28 29 30 31 31 31 31 28 25 25 25 24 23 22 20 20
12 11 11 11 12 13 13 12 11 11 11 13 14 14 14 14 15 16 17 18 18 19 20 20 19 18 18 17 18 18 19 21 23 25 26 26 27 27 26 27 27 26 25 24 23 24 24 25 26 28 28 28 29 29 26 23 23 24 25 26 26 25 25
12 11 11 12 12 13 13 12 11 11 13 14 14 13 13 13 14 15 15 16 16 17 18 17 17 16 16 16 16 17 18 19 21 22 23 24 25 24 24 25 25 24 22 21 21 22 22 24 25 26 27 27 27 26 23 22 22 23 24 26 27 28 28
13 13 13 13 13 14 14 13 13 13 13 13 12 12 12 12 13 14 14 15 15 16 17 16 16 15 15 15 15 16 16 18 20 20 20 21 23 23 23 23 23 22 20 19 19 20 21 22 24 26 27 27 25 22 20 20 20 20 22 24 25 26 27
14 15 15 14 14 15 15 14 13 13 12 11 11 11 12 12 13 15 16 16 17 18 19 18 17 17 17 17 17 17 17 18 19 18 18 21 23 23 22 22 22 21 19 19 20 21 21 22 23 25 25 24 22 21 20 21 21 21 23 24 24 25 26
16 16 15 14 14 14 14 13 12 11 10 9 10 11 12 13 14 16 18 20 21 22 22 22 22 22 22 22 22 21 21 21 20 20 21 23 23 23 22 22 22 21 21 22 23 24 24 25 25 24 24 23 23 24 24 25 27 28 28 29 29 30 30
16 16 15 13 12 12 12 11 10 10 9 9 10 12 13 15 16 18 21 23 24 24 25 25 25 24 25 24 25 24 24 24 23 23 25 26 24 23 23 22 22 22 23 24 26 27 28 28 27 26 25 25 26 27 29 30 31 32 33 33 34 34 34
Wind_Direction
242 256 269 283 299 312 321 326 326 323 321 320 321 323 322 321 319 316 317 317 317 316 314 312 308 306 304 300 297 293 287 282 276 273 274 272 269 270 271 269 267 265 264 263 261 261 262 264 269 269 263 260 257 250 246 246 246 242 235 225 218 219 217
264 270 277 292 308 321 327 327 324 318 315 314 315 317 317 315 313 312 313 313 313 313 311 309 306 305 305 303 301 299 294 289 285 279 275 273 270 269 270 270 268 266 265 264 261 260 260 261 264 267 264 261 259 256 254 251 248 246 242 231 220 218 217
277 282 287 303 318 327 327 320 314 311 310 312 315 316 315 313 311 310 310 309 309 310 309 309 308 307 305 303 303 302 301 299 296 290 282 278 273 267 266 267 264 258 257 260 259 256 256 255 257 262 264 263 260 259 261 257 249 244 243 237 227 221 218
276 287 295 307 316 319 318 313 310 311 315 318 320 321 319 317 314 312 310 309 309 309 310 310 309 307 305 304 303 304 304 303 301 296 289 283 276 270 266 263 261 259 259 260 261 259 255 253 254 258 262 264 263 262 262 261 254 245 242 240 234 225 220
292 304 306 307 310 310 309 307 308 311 315 316 317 320 321 319 316 312 309 309 309 309 310 309 308 306 306 306 306 307 306 305 302 296 290 285 279 273 266 261 258 260 259 256 257 258 254 253 254 259 265 264 263 264 262 260 256 248 243 242 238 230 223
308 312 310 308 306 304 303 304 307 311 313 314 315 318 320 317 314 311 309 309 311 312 312 311 311 310 309 308 309 309 306 304 303 296 292 290 285 277 270 264 259 258 256 253 254 256 255 257 256 259 266 263 262 265 262 258 256 250 245 243 240 233 224
304 306 306 306 304 302 303 306 310 314 314 314 317 320 320 317 314 311 312 315 316 316 315 314 313 310 309 310 310 309 304 304 305 299 295 293 289 282 276 270 266 265 262 259 260 260 257 257 256 259 263 261 261 262 257 255 254 248 245 243 239 231 223
296 300 301 302 303 305 308 312 316 315 315 317 321 323 321 318 315 315 318 321 319 317 316 315 313 310 311 312 312 310 305 305 307 303 299 293 288 286 285 279 275 275 270 265 264 261 255 253 253 257 259 257 255 254 251 250 249 245 243 243 240 230 221
295 297 298 301 305 308 310 313 315 315 317 321 322 323 322 319 319 321 323 322 320 320 319 317 315 314 314 314 314 312 309 307 306 305 300 294 288 282 281 283 281 277 270 264 263 261 257 256 254 252 253 252 249 248 247 242 241 242 239 236 236 229 220
295 295 297 301 306 308 309 311 315 317 320 321 321 323 323 322 323 324 324 323 324 325 323 320 319 319 318 315 315 314 312 309 307 307 302 298 298 288 276 278 283 279 270 263 263 262 261 260 256 251 252 253 250 250 247 234 232 237 231 225 229 226 222
290 292 296 301 304 304 306 311 317 320 320 319 320 323 323 323 323 322 323 326 330 329 325 323 325 325 322 318 317 316 315 313 312 313 307 298 299 294 283 280 280 280 278 271 264 262 260 256 252 248 252 254 251 251 248 235 230 234 228 223 226 225 223
289 292 295 298 299 299 305 315 322 321 319 318 320 321 322 322 321 322 326 331 334 332 327 327 329 329 326 322 321 320 319 320 320 319 314 303 294 291 289 286 283 281 282 276 265 259 259 254 249 248 255 261 256 251 249 241 232 232 230 225 222 221 223
289 290 292 293 294 300 311 320 323 320 317 319 319 320 321 322 322 325 330 334 337 335 331 331 332 332 331 328 327 326 324 324 322 318 316 309 298 292 290 287 285 282 278 273 264 258 258 254 248 247 255 270 269 257 252 245 237 235 233 226 222 222 222
285 284 285 289 298 309 317 318 318 317 317 318 318 320 323 325 326 328 331 336 339 338 335 334 336 336 335 334 333 332 330 327 323 317 314 313 307 298 292 289 288 287 279 272 266 263 262 256 250 246 248 264 274 266 252 246 245 243 236 225 219 220 219
274 275 281 294 309 316 317 317 316 316 318 319 320 324 328 330 330 331 333 337 338 338 338 339 339 338 337 338 340 341 337 332 329 325 320 319 315 305 297 293 293 291 284 277 273 268 264 260 253 249 248 254 269 271 255 243 245 241 233 225 216 214 214
266 275 297 315 320 324 324 322 320 320 324 326 329 332 334 336 339 341 342 341 342 344 346 345 345 345 344 346 350 352 346 338 337 339 336 332 328 318 306 302 300 296 288 281 278 272 265 262 254 251 252 252 260 268 259 248 244 235 225 219 214 216 218
267 290 328 332 334 335 329 326 328 333 338 341 341 340 342 347 349 350 352 353 356 356 355 356 358 0 360 357 360 2 357 347 343 343 342 344 346 339 325 317 313 306 295 285 281 277 268 264 260 255 255 253 254 259 256 251 246 236 226 220 219 221 225
272 343 3 351 349 340 336 343 352 357 356 353 350 349 350 353 354 3 14 16 14 10 8 8 11 15 12 8 8 8 5 359 353 348 347 351 356 352 341 331 319 309 305 299 293 285 271 266 268 266 261 257 258 259 254 249 244 240 235 229 225 222 223
111 79 38 12 3 358 6 14 16 15 9 4 4 7 11 14 19 30 33 26 20 17 15 12 15 18 15 11 9 8 10 12 10 7 3 360 357 350 343 336 327 315 309 306 303 297 284 276 273 270 267 265 263 260 254 247 243 241 235 227 225 226 225
108 89 64 47 41 39 38 33 27 24 20 19 25 31 36 41 47 46 35 24 20 18 14 14 18 19 14 10 8 9 14 20 22 23 18 10 2 355 347 340 335 330 319 311 308 304 300 293 280 273 272 272 270 264 256 250 248 246 237 225 225 230 230
106 95 81 70 64 57 47 37 32 32 34 38 44 49 53 58 58 46 30 26 28 28 29 32 30 25 18 12 8 8 11 17 22 22 21 17 10 4 359 351 344 337 325 318 316 309 304 299 289 281 276 277 277 273 267 259 251 247 240 230 228 231 232
108 98 86 79 75 63 49 43 43 46 50 54 59 63 68 66 55 40 37 42 47 48 49 46 40 34 28 22 15 9 4 5 12 16 17 18 12 8 8 7 2 350 335 328 323 315 307 298 291 287 280 278 275 272 275 271 258 247 240 235 233 233 234
110 101 92 86 79 67 57 56 58 62 64 65 66 70 71 62 50 51 60 62 59 55 51 47 41 36 32 28 23 18 10 6 11 15 16 17 15 14 16 18 17 6 350 343 339 328 318 308 303 301 291 284 277 273 282 285 278 264 247 239 238 237 237
112 104 98 90 82 74 70 69 68 70 74 74 73 73 72 67 66 70 70 63 56 51 47 44 40 34 31 28 25 24 24 23 26 28 31 34 34 32 30 29 28 22 12 7 2 354 343 332 323 314 301 295 295 292 290 289 282 272 260 253 249 246 246
114 108 103 94 87 82 79 79 78 80 82 82 82 82 81 81 78 72 64 58 55 52 48 45 41 36 32 28 26 30 36 41 44 48 52 55 55 53 51 49 47 45 43 39 31 22 14 3 349 332 315 304 299 296 294 291 280 268 264 264 261 259 259
117 110 103 94 89 86 83 82 85 87 86 86 87 87 84 81 74 66 62 61 59 57 54 49 45 41 38 36 38 43 50 56 60 63 65 66 65 64 62 61 60 57 54 53 48 40 31 22 14 0 340 321 311 311 312 306 295 279 268 265 263 263 266
118 109 102 96 93 90 83 81 84 87 88 88 88 86 80 75 69 66 66 66 64 61 58 53 48 46 46 48 52 58 65 69 71 71 70 68 67 66 64 62 60 58 54 51 48 44 38 31 29 29 28 23 19 18 11 357 344 329 302 281 266 259 262
117 107 102 99 96 93 86 82 84 88 89 87 83 80 77 73 71 71 71 70 68 65 61 55 51 50 52 58 62 68 73 76 75 74 71 68 67 66 64 62 59 58 56 54 51 50 48 48 51 57 60 58 55 54 50 42 35 31 24 5 327 285 274
115 105 102 101 98 94 90 86 84 86 88 84 79 76 75 74 74 75 75 72 69 67 63 56 52 50 52 57 63 68 74 77 76 75 72 69 67 66 65 64 61 59 59 59 58 59 60 61 64 66 65 62 59 57 54 50 47 47 45 41 33 20 356
114 107 105 104 100 95 90 87 84 84 85 82 76 73 75 77 77 76 73 70 67 65 62 55 50 49 50 52 56 62 70 74 74 74 73 71 70 68 67 67 66 64 63 62 61 63 64 65 65 65 66 64 60 58 56 54 52 53 54 56 56 55 57
114 108 106 103 98 96 92 88 87 85 81 75 73 75 77 77 75 72 69 67 66 65 62 57 51 50 50 49 51 58 68 74 73 71 72 72 72 71 69 68 67 66 65 64 62 62 63 64 65 66 67 67 64 63 62 59 58 60 61 62 63 64 65
113 109 105 100 96 96 94 91 89 85 79 75 75 78 77 72 71 72 70 67 66 64 64 61 56 53 52 49 51 58 68 74 73 71 70 70 70 69 66 65 64 62 61 60 58 58 59 61 63 64 65 66 66 68 68 66 65 66 65 65 66 66 66
113 106 100 99 96 94 92 88 84 81 79 80 81 79 75 72 72 74 73 69 67 64 64 64 61 57 55 52 54 61 67 73 75 73 70 69 67 64 61 59 58 56 52 48 48 50 53 56 59 61 60 61 65 68 69 67 66 68 68 69 71 71 70
111 102 96 95 94 91 88 85 82 83 84 85 84 81 80 78 77 78 76 73 72 69 67 68 66 62 60 59 60 64 67 72 75 72 68 66 65 62 59 56 55 52 46 43 45 48 51 53 56 58 59 61 65 68 67 66 68 70 72 74 74 74 73
110 102 95 93 91 89 89 88 87 88 88 87 85 83 85 85 83 83 81 77 77 76 72 71 70 68 66 64 64 65 65 68 70 68 67 66 64 62 60 58 56 53 48 48 52 55 57 59 60 61 62 63 64 64 63 66 68 68 70 71 71 70 69
109 102 97 96 95 93 94 93 92 91 89 88 88 88 90 90 89 89 87 84 82 81 78 74 72 70 68 66 65 64 64 65 67 68 69 69 67 66 64 63 61 58 57 60 63 65 66 66 66 66 67 67 68 68 69 70 69 68 68 67 66 64 62
108 105 104 103 99 95 97 96 94 95 93 93 94 94 95 97 96 95 93 90 86 83 79 76 72 69 67 66 64 63 63 63 65 67 70 72 72 71 70 69 68 67 66 68 69 70 71 72 72 73 73 73 73 72 71 69 68 67 67 66 65 63 61
Height
1540 1540 1541 1541 1542 1542 1542 1542 1541 1541 1540 1540 1540 1539 1539 1538 1537 1536 1536 1535 1534 1534 1533 1532 1532 1531 1530 1530 1529 1529 1528 1528 1528 1527 1526 1526 1526 1525 1525 1525 1525 1525 1526 1526 1526 1526 1525 1524 1524 1524 1524 1524 1525 1525 1526 1527 1528 1530 1530 1532 1534 1535 1536
1538 1539 1540 1540 1541 1541 1541 1541 1540 1540 1539 1539 1538 1538 1537 1536 1535 1534 1534 1533 1532 1531 1531 1530 1529 1528 1528 1527 1527 1526 1526 1525 1525 1524 1523 1523 1522 1522 1522 1522 1522 1521 1522 1522 1523 1523 1522 1522 1522 1521 1521 1522 1522 1522 1523 1524 1525 1526 1527 1529 1531 1533 1534
1537 1538 1539 1539 1540 1540 1540 1539 1539 1538 1538 1537 1537 1536 1535 1535 1534 1533 1532 1531 1530 1529 1528 1527 1527 1526 1525 1525 1524 1523 1523 1522 1522 1521 1520 1519 1519 1518 1518 1519 1518 1518 1518 1518 1518 1519 1519 1519 1519 1518 1519 1519 1519 1519 1521 1521 1522 1523 1524 1526 1528 1530 1532
1537 1537 1538 1538 1539 1538 1538 1538 1537 1537 1536 1535 1535 1534 1534 1533 1532 1531 1530 1529 1528 1527 1526 1525 1524 1524 1523 1522 1521 1520 1520 1519 1518 1517 1517 1516 1515 1514 1514 1515 1514 1514 1515 1514 1514 1515 1515 1516 1516 1515 1516 1516 1516 1517 1518 1518 1519 1521 1522 1522 1524 1527 1529
1536 1537 1537 1537 1537 1537 1537 1536 1535 1535 1534 1534 1533 1532 1532 1531 1530 1529 1528 1526 1525 1524 1524 1523 1522 1521 1521 1520 1519 1518 1517 1515 1515 1514 1513 1512 1511 1510 1510 1510 1511 1511 1510 1511 1511 1512 1512 1512 1513 1512 1513 1514 1514 1514 1515 1516 1516 1518 1519 1519 1521 1523 1525
1536 1536 1536 1536 1536 1535 1535 1534 1533 1533 1532 1532 1531 1531 1530 1529 1528 1527 1525 1524 1523 1522 1521 1520 1520 1519 1518 1517 1516 1515 1514 1513 1512 1511 1510 1509 1508 1507 1506 1506 1507 1506 1506 1507 1508 1508 1509 1509 1510 1509 1509 1511 1511 1511 1512 1513 1513 1514 1515 1516 1517 1519 1522
1535 1535 1535 1535 1534 1533 1533 1532 1531 1531 1531 1530 1530 1529 1528 1527 1526 1524 1523 1522 1521 1520 1519 1518 1518 1517 1516 1515 1514 1513 1511 1510 1510 1509 1507 1506 1505 1504 1503 1503 1503 1502 1503 1503 1504 1505 1505 1506 1506 1506 1507 1507 1507 1508 1509 1509 1510 1511 1511 1512 1513 1516 1518
1534 1534 1534 1533 1532 1532 1531 1530 1530 1529 1529 1529 1528 1527 1526 1525 1523 1522 1521 1520 1519 1518 1517 1516 1516 1514 1513 1512 1511 1510 1509 1508 1507 1506 1505 1503 1502 1501 1501 1501 1500 1500 1500 1500 1501 1501 1501 1502 1502 1503 1504 1505 1505 1505 1505 1506 1507 1507 1508 1509 1510 1512 1514
1533 1533 1533 1532 1531 1530 1530 1529 1529 1528 1527 1527 1526 1525 1524 1523 1522 1520 1519 1518 1517 1516 1515 1514 1513 1512 1511 1510 1509 1508 1507 1505 1504 1503 1502 1501 1499 1499 1499 1498 1498 1497 1497 1498 1498 1498 1498 1499 1499 1500 1501 1502 1502 1502 1502 1502 1502 1503 1505 1506 1507 1508 1511
1532 1532 1531 1530 1529 1529 1528 1528 1527 1526 1526 1525 1524 1523 1522 1521 1520 1519 1517 1516 1515 1514 1513 1512 1511 1510 1509 1508 1507 1505 1504 1503 1502 1500 1499 1498 1497 1496 1496 1496 1495 1495 1495 1495 1495 1495 1496 1496 1496 1496 1497 1498 1499 1499 1499 1498 1498 1499 1502 1503 1503 1505 1507
1531 1530 1530 1529 1528 1527 1527 1526 1526 1525 1524 1523 1523 1522 1521 1519 1518 1517 1515 1515 1513 1512 1511 1510 1509 1508 1506 1505 1504 1503 1502 1501 1500 1498 1497 1496 1495 1495 1494 1494 1493 1493 1492 1492 1493 1493 1493 1493 1493 1494 1494 1494 1495 1495 1495 1495 1495 1496 1498 1500 1500 1502 1503
1529 1529 1528 1527 1527 1526 1525 1525 1524 1524 1523 1522 1521 1520 1519 1518 1517 1515 1514 1513 1512 1511 1509 1508 1507 1506 1505 1504 1502 1501 1500 1499 1498 1497 1495 1494 1494 1493 1492 1492 1492 1491 1491 1490 1490 1490 1490 1490 1491 1491 1491 1491 1491 1491 1492 1492 1493 1494 1495 1497 1498 1500 1501
1527 1527 1526 1526 1525 1524 1524 1524 1523 1523 1522 1521 1520 1519 1518 1516 1515 1514 1513 1512 1510 1509 1508 1507 1506 1505 1503 1502 1501 1500 1499 1498 1496 1495 1494 1493 1492 1491 1491 1490 1490 1490 1489 1489 1489 1488 1488 1488 1489 1489 1489 1489 1488 1489 1489 1490 1490 1492 1493 1495 1497 1498 1499
1525 1525 1525 1524 1524 1523 1523 1523 1522 1522 1521 1520 1519 1517 1516 1515 1514 1512 1511 1510 1509 1507 1506 1505 1504 1503 1502 1501 1500 1499 1498 1497 1495 1494 1493 1492 1491 1490 1490 1489 1488 1488 1488 1487 1487 1487 1487 1487 1486 1486 1487 1487 1486 1487 1487 1488 1488 1490 1491 1493 1495 1497 1498
1524 1524 1523 1523 1523 1522 1522 1522 1521 1521 1520 1518 1517 1516 1515 1513 1512 1511 1510 1509 1507 1506 1505 1504 1503 1502 1501 1500 1499 1498 1497 1496 1494 1493 1492 1491 1490 1489 1488 1488 1487 1487 1486 1486 1485 1485 1485 1484 1484 1484 1485 1485 1485 1485 1485 1486 1487 1487 1489 1491 1493 1495 1496
1522 1522 1522 1522 1522 1522 1522 1521 1521 1520 1518 1517 1516 1514 1513 1512 1510 1509 1508 1507 1507 1506 1505 1503 1502 1501 1500 1499 1498 1497 1496 1495 1494 1492 1491 1490 1489 1488 1487 1486 1486 1486 1485 1484 1484 1483 1483 1483 1482 1483 1483 1483 1483 1483 1483 1484 1484 1485 1486 1489 1491 1493 1494
1521 1521 1521 1521 1521 1521 1521 1521 1520 1519 1517 1516 1514 1513 1512 1511 1509 1508 1508 1507 1506 1505 1504 1502 1501 1500 1499 1498 1497 1496 1495 1494 1493 1492 1491 1489 1488 1487 1486 1486 1485 1484 1484 1483 1482 1482 1481 1481 1481 1481 1481 1481 1481 1481 1482 1482 1483 1483 1485 1487 1489 1491 1493
1521 1521 1521 1521 1521 1521 1521 1520 1519 1518 1516 1515 1513 1512 1511 1510 1509 1508 1507 1506 1505 1504 1503 1502 1501 1500 1499 1498 1497 1496 1495 1494 1492 1491 1490 1489 1488 1487 1486 1485 1484 1484 1483 1482 1482 1481 1480 1480 1480 1480 1480 1480 1480 1480 1480 1480 1481 1482 1484 1486 1487 1489 1491
1520 1520 1521 1521 1521 1521 1520 1520 1519 1517 1515 1514 1512 1511 1510 1509 1508 1507 1507 1506 1505 1504 1503 1502 1501 1500 1499 1498 1497 1496 1495 1494 1492 1491 1490 1489 1488 1486 1485 1484 1484 1483 1483 1482 1481 1481 1480 1479 1479 1479 1479 1479 1479 1478 1478 1478 1479 1480 1482 1484 1485 1487 1488
1520 1520 1521 1521 1521 1521 1520 1519 1518 1516 1515 1513 1512 1510 1509 1508 1508 1507 1507 1506 1505 1504 1503 1502 1501 1500 1499 1498 1497 1496 1495 1493 1492 1491 1489 1488 1487 1486 1485 1484 1483 1483 1482 1481 1481 1480 1479 1479 1478 1478 1478 1477 1477 1477 1477 1477 1478 1479 1480 1482 1483 1484 1486
1520 1521 1521 1521 1521 1521 1520 1519 1517 1516 1514 1513 1511 1510 1509 1509 1509 1508 1508 1506 1505 1505 1504 1503 1502 1500 1499 1498 1497 1496 1494 1493 1492 1490 1489 1488 1487 1486 1485 1484 1483 1483 1482 1481 1480 1479 1478 1478 1477 1477 1476 1476 1476 1476 1476 1476 1477 1477 1479 1480 1481 1482 1484
1521 1521 1522 1522 1522 1521 1520 1519 1517 1515 1514 1513 1512 1511 1510 1510 1510 1509 1508 1507 1506 1505 1504 1503 1502 1501 1500 1499 1497 1496 1494 1493 1492 1490 1489 1488 1487 1486 1485 1484 1483 1482 1481 1480 1480 1479 1478 1477 1476 1475 1475 1475 1475 1475 1475 1475 1476 1476 1477 1478 1480 1481 1482
1522 1522 1522 1522 1522 1521 1520 1518 1517 1516 1515 1514 1513 1512 1512 1511 1511 1510 1509 1508 1507 1506 1504 1503 1502 1502 1501 1499 1498 1496 1495 1493 1492 1491 1489 1488 1487 1486 1485 1484 1483 1482 1481 1480 1479 1479 1478 1477 1476 1475 1475 1474 1474 1474 1474 1474 1475 1475 1476 1477 1478 1479 1480
1522 1523 1523 1522 1521 1520 1520 1519 1517 1517 1516 1515 1514 1513 1513 1512 1511 1511 1510 1509 1508 1507 1506 1505 1504 1503 1502 1500 1499 1497 1495 1494 1492 1491 1490 1488 1487 1486 1485 1484 1483 1482 1481 1480 1480 1479 1478 1477 1476 1475 1475 1474 1474 1474 1474 1474 1474 1475 1475 1476 1477 1478 1478
1523 1523 1522 1522 1521 1520 1520 1519 1518 1517 1516 1515 1515 1514 1514 1513 1512 1512 1511 1510 1509 1508 1507 1506 1505 1504 1503 1501 1500 1498 1497 1495 1493 1492 1491 1490 1488 1487 1486 1485 1483 1482 1481 1480 1480 1479 1478 1477 1477 1476 1475 1474 1474 1474 1474 1474 1474 1474 1475 1475 1476 1477 1478
1523 1523 1522 1522 1521 1521 1520 1520 1519 1518 1517 1516 1516 1515 1515 1514 1513 1513 1512 1511 1511 1510 1509 1508 1507 1506 1504 1503 1502 1500 1498 1497 1495 1494 1493 1491 1490 1489 1487 1486 1484 1483 1482 1481 1480 1479 1479 1478 1477 1476 1476 1475 1475 1474 1474 1474 1474 1473 1474 1475 1475 1476 1477
1523 1522 1522 1521 1521 1521 1521 1520 1519 1518 1518 1517 1517 1516 1516 1515 1515 1514 1514 1513 1512 1511 1510 1510 1509 1508 1506 1505 1504 1502 1501 1499 1498 1496 1495 1493 1492 1491 1489 1488 1486 1485 1484 1483 1481 1480 1480 1479 1478 1478 1477 1476 1476 1475 1475 1475 1474 1474 1474 1474 1475 1476 1476
1522 1522 1522 1521 1521 1521 1521 1520 1520 1520 1519 1518 1518 1517 1517 1517 1516 1516 1516 1515 1514 1513 1512 1512 1511 1510 1509 1508 1506 1505 1503 1502 1500 1498 1497 1496 1494 1493 1492 1490 1489 1488 1486 1485 1484 1483 1482 1482 1481 1480 1478 1477 1477 1476 1475 1475 1475 1475 1474 1474 1475 1475 1476
1522 1522 1522 1522 1521 1521 1521 1521 1520 1520 1520 1520 1519 1519 1519 1518 1518 1518 1517 1517 1516 1515 1515 1515 1514 1513 1512 1510 1509 1507 1506 1504 1502 1501 1499 1498 1497 1496 1495 1494 1493 1492 1490 1488 1488 1487 1486 1485 1483 1481 1480 1480 1479 1478 1477 1477 1478 1477 1476 1475 1475 1475 1476
1522 1522 1522 1522 1522 1521 1521 1521 1521 1521 1521 1521 1521 1520 1520 1520 1520 1519 1519 1519 1518 1517 1517 1516 1516 1515 1514 1513 1511 1510 1508 1507 1505 1503 1502 1501 1500 1499 1498 1497 1496 1495 1494 1493 1492 1491 1489 1487 1486 1484 1483 1483 1482 1481 1481 1481 1481 1480 1479 1478 1477 1477 1477
1521 1522 1522 1522 1522 1522 1522 1522 1522 1522 1522 1522 1521 1521 1522 1522 1521 1521 1520 1520 1520 1519 1519 1518 1518 1517 1516 1515 1513 1512 1511 1510 1508 1507 1506 1505 1504 1503 1502 1501 1500 1499 1498 1498 1497 1495 1493 1491 1489 1488 1487 1486 1485 1484 1485 1486 1485 1483 1482 1480 1479 1479 1479
1521 1521 1522 1522 1522 1522 1522 1523 1523 1523 1523 1523 1523 1523 1523 1523 1523 1522 1522 1522 1522 1521 1520 1520 1520 1519 1518 1517 1516 1514 1513 1512 1511 1510 1509 1508 1507 1506 1506 1504 1503 1502 1501 1501 1500 1498 1496 1494 1492 1491 1491 1490 1488 1488 1490 1490 1488 1487 1485 1483 1482 1482 1481
1521 1521 1522 1522 1522 1523 1523 1523 1524 1524 1524 1524 1524 1524 1524 1524 1524 1524 1524 1524 1523 1523 1522 1522 1522 1521 1521 1519 1518 1517 1516 1514 1513 1513 1512 1511 1509 1509 1508 1507 1506 1505 1505 1503 1502 1500 1499 1497 1495 1494 1494 1492 1492 1493 1494 1493 1491 1490 1488 1487 1486 1485 1484
1521 1522 1522 1523 1523 1523 1524 1525 1525 1525 1525 1525 1526 1526 1525 1525 1525 1525 1525 1525 1525 1524 1524 1524 1523 1523 1522 1521 1520 1519 1518 1516 1515 1514 1513 1512 1511 1510 1510 1509 1508 1508 1507 1506 1504 1502 1501 1500 1498 1497 1496 1496 1496 1497 1497 1495 1494 1493 1491 1490 1490 1489 1488
1521 1522 1523 1524 1524 1524 1525 1526 1526 1526 1527 1527 1527 1527 1527 1527 1527 1527 1527 1527 1526 1526 1526 1526 1525 1525 1524 1523 1522 1521 1519 1518 1517 1516 1515 1514 1513 1512 1512 1512 1511 1511 1510 1508 1506 1505 1503 1502 1501 1500 1500 1500 1500 1500 1499 1497 1496 1495 1494 1493 1492 1491 1491
1522 1523 1524 1525 1526 1526 1526 1527 1527 1528 1528 1528 1528 1528 1528 1528 1528 1528 1528 1528 1528 1528 1528 1528 1528 1527 1526 1525 1524 1523 1521 1520 1520 1519 1517 1516 1515 1515 1515 1514 1514 1513 1512 1510 1509 1507 1506 1505 1504 1503 1504 1504 1503 1502 1501 1500 1498 1497 1496 1495 1494 1493 1493
1523 1524 1525 1526 1527 1527 1527 1528 1528 1529 1529 1529 1529 1529 1530 1530 1530 1530 1530 1530 1530 1530 1530 1530 1530 1529 1528 1527 1526 1525 1524 1523 1522 1521 1519 1518 1518 1518 1518 1518 1517 1516 1515 1513 1512 1510 1509 1508 1508 1508 1507 1507 1505 1504 1503 1502 1501 1500 1499 1498 1497 1497 1497